Time,TemperatureF,DewpointF,PressureIn,WindDirection,WindDirectionDegrees,WindSpeedMPH,WindSpeedGustMPH,Humidity,HourlyPrecipIn,Conditions,Clouds,dailyrainin,SolarRadiationWatts/m^2,SoftwareType,DateUTC
2013-07-07 00:00:00,75.8,69.6,30.06,SW,234,0.0,0.0,81,0.00,,,0.00,0,Wunderground v.1.15,2013-07-07 04:00:00,
2013-07-07 00:10:00,75.9,69.3,30.05,SW,234,0.0,0.0,80,0.00,,,0.00,0,Wunderground v.1.15,2013-07-07 04:10:00,
2013-07-07 00:20:00,75.5,69.3,30.05,SW,234,0.0,0.0,81,0.00,,,0.00,0,Wunderground v.1.15,2013-07-07 04:20:00,
2013-07-07 00:30:00,74.1,68.6,30.05,SW,234,0.0,0.0,83,0.00,,,0.00,0,Wunderground v.1.15,2013-07-07 04:30:00,
2013-07-07 00:40:00,74.4,68.9,30.05,SSW,209,0.0,0.0,83,0.00,,,0.00,0,Wunderground v.1.15,2013-07-07 04:40:00,
2013-07-07 00:50:00,74.3,68.8,30.05,SSW,209,0.0,0.0,83,0.00,,,0.00,0,Wunderground v.1.15,2013-07-07 04:50:00,
2013-07-07 01:00:00,74.2,68.7,30.05,SSW,209,0.0,0.0,83,0.00,,,0.00,0,Wunderground v.1.15,2013-07-07 05:00:00,
2013-07-07 01:10:00,74.1,69.0,30.05,SSW,209,0.0,0.0,84,0.00,,,0.00,0,Wunderground v.1.15,2013-07-07 05:10:00,
2013-07-07 01:20:00,74.3,69.1,30.05,SSW,209,0.0,0.0,84,0.00,,,0.00,0,Wunderground v.1.15,2013-07-07 05:20:00,
2013-07-07 01:30:00,74.5,69.0,30.05,SSW,209,0.0,0.0,83,0.00,,,0.00,0,Wunderground v.1.15,2013-07-07 05:30:00,
2013-07-07 01:40:00,74.6,69.1,30.05,SSW,209,0.0,0.0,83,0.00,,,0.00,0,Wunderground v.1.15,2013-07-07 05:40:00,
2013-07-07 01:50:00,74.7,69.2,30.04,SSW,209,0.0,0.0,83,0.00,,,0.00,0,Wunderground v.1.15,2013-07-07 05:50:00,
2013-07-07 02:00:00,74.4,68.5,30.04,SSW,209,0.0,0.0,82,0.00,,,0.00,0,Wunderground v.1.15,2013-07-07 06:00:00,
2013-07-07 02:10:00,73.9,68.8,30.04,SSW,209,0.0,0.0,84,0.00,,,0.00,0,Wunderground v.1.15,2013-07-07 06:10:00,
2013-07-07 02:20:00,74.0,68.9,30.04,SSW,209,0.0,0.0,84,0.00,,,0.00,0,Wunderground v.1.15,2013-07-07 06:20:00,
2013-07-07 02:30:00,74.0,68.9,30.04,SSW,209,0.0,0.0,84,0.00,,,0.00,0,Wunderground v.1.15,2013-07-07 06:30:00,
2013-07-07 02:40:00,73.9,68.8,30.04,SSW,209,0.0,0.0,84,0.00,,,0.00,0,Wunderground v.1.15,2013-07-07 06:40:00,
2013-07-07 02:50:00,73.8,68.7,30.04,SSW,209,0.0,0.0,84,0.00,,,0.00,0,Wunderground v.1.15,2013-07-07 06:50:00,
2013-07-07 03:00:00,73.6,68.8,30.04,SSW,209,0.0,0.0,85,0.00,,,0.00,0,Wunderground v.1.15,2013-07-07 07:00:00,
2013-07-07 03:10:00,73.5,68.7,30.04,SSW,209,0.0,0.0,85,0.00,,,0.00,0,Wunderground v.1.15,2013-07-07 07:10:00,
2013-07-07 03:20:00,73.6,68.8,30.04,SSW,209,0.0,0.0,85,0.00,,,0.00,0,Wunderground v.1.15,2013-07-07 07:20:00,
2013-07-07 03:30:00,73.4,68.6,30.04,SSW,209,0.0,0.0,85,0.00,,,0.00,0,Wunderground v.1.15,2013-07-07 07:30:00,
2013-07-07 03:40:00,73.4,69.0,30.03,SSW,209,0.0,0.0,86,0.00,,,0.00,0,Wunderground v.1.15,2013-07-07 07:40:00,
2013-07-07 03:50:00,73.2,68.8,30.03,SSW,209,0.0,0.0,86,0.00,,,0.00,0,Wunderground v.1.15,2013-07-07 07:50:00,
2013-07-07 04:00:00,73.3,68.9,30.04,SSW,209,0.0,0.0,86,0.00,,,0.00,0,Wunderground v.1.15,2013-07-07 08:00:00,
2013-07-07 04:10:00,73.2,68.8,30.04,SSW,209,0.0,0.0,86,0.00,,,0.00,0,Wunderground v.1.15,2013-07-07 08:10:00,
2013-07-07 04:20:00,73.3,68.9,30.04,SSW,209,0.0,0.0,86,0.00,,,0.00,0,Wunderground v.1.15,2013-07-07 08:20:00,
2013-07-07 04:30:00,73.4,69.0,30.04,SSW,209,0.0,0.0,86,0.00,,,0.00,0,Wunderground v.1.15,2013-07-07 08:30:00,
2013-07-07 04:40:00,73.1,68.7,30.04,SSW,209,0.0,0.0,86,0.00,,,0.00,0,Wunderground v.1.15,2013-07-07 08:40:00,
2013-07-07 04:50:00,72.6,68.5,30.03,SSW,209,0.0,0.0,87,0.00,,,0.00,0,Wunderground v.1.15,2013-07-07 08:50:00,
2013-07-07 05:00:00,72.2,68.4,30.03,SSW,209,0.0,0.0,88,0.00,,,0.00,0,Wunderground v.1.15,2013-07-07 09:00:00,
2013-07-07 05:10:00,71.7,68.3,30.04,SSW,209,0.0,0.0,89,0.00,,,0.00,0,Wunderground v.1.15,2013-07-07 09:10:00,
2013-07-07 05:20:00,70.8,67.7,30.04,SSW,209,0.0,0.0,90,0.00,,,0.00,0,Wunderground v.1.15,2013-07-07 09:20:00,
2013-07-07 05:30:00,71.0,68.2,30.04,SSW,209,0.0,0.0,91,0.00,,,0.00,0,Wunderground v.1.15,2013-07-07 09:30:00,
2013-07-07 05:40:00,71.2,68.4,30.04,SSW,209,0.0,0.0,91,0.00,,,0.00,0,Wunderground v.1.15,2013-07-07 09:40:00,
2013-07-07 05:50:00,71.3,68.5,30.04,SSW,209,0.0,0.0,91,0.00,,,0.00,0,Wunderground v.1.15,2013-07-07 09:50:00,
2013-07-07 06:00:00,71.6,68.5,30.04,SSW,209,0.0,0.0,90,0.00,,,0.00,7,Wunderground v.1.15,2013-07-07 10:00:00,
2013-07-07 06:10:00,71.7,68.6,30.04,SSW,209,0.0,0.0,90,0.00,,,0.00,23,Wunderground v.1.15,2013-07-07 10:10:00,
2013-07-07 06:20:00,71.8,68.4,30.04,SSW,209,0.0,0.0,89,0.00,,,0.00,26,Wunderground v.1.15,2013-07-07 10:20:00,
2013-07-07 06:30:00,72.1,69.0,30.05,SSW,209,0.0,0.0,90,0.00,,,0.00,39,Wunderground v.1.15,2013-07-07 10:30:00,
2013-07-07 06:40:00,72.6,69.2,30.05,SSW,209,0.0,0.0,89,0.00,,,0.00,49,Wunderground v.1.15,2013-07-07 10:40:00,
2013-07-07 15:10:00,89.6,75.3,29.95,SE,130,2.0,6.0,63,0.00,,,0.00,1021,Wunderground v.1.15,2013-07-07 19:10:00,
2013-07-07 15:20:00,89.8,75.0,29.96,SSE,150,3.0,3.0,62,0.00,,,0.00,926,Wunderground v.1.15,2013-07-07 19:20:00,
2013-07-07 15:30:00,90.6,75.8,29.97,SSE,163,1.0,1.0,62,0.00,,,0.00,299,Wunderground v.1.15,2013-07-07 19:30:00,
2013-07-07 15:40:00,89.5,73.8,29.96,SSE,154,1.0,1.0,60,0.00,,,0.00,155,Wunderground v.1.15,2013-07-07 19:40:00,
2013-07-07 15:50:00,88.1,74.4,29.96,SSE,159,1.0,1.0,64,0.00,,,0.00,98,Wunderground v.1.15,2013-07-07 19:50:00,
2013-07-07 16:00:00,86.5,72.4,30.02,NW,319,3.0,9.0,63,0.00,,,0.00,7,Wunderground v.1.15,2013-07-07 20:00:00,
2013-07-07 16:10:00,78.3,69.7,30.02,NW,309,6.0,6.0,75,0.00,,,0.01,7,Wunderground v.1.15,2013-07-07 20:10:00,
2013-07-07 16:20:00,73.6,68.8,30.02,WNW,290,1.0,1.0,85,1.50,,,0.07,32,Wunderground v.1.15,2013-07-07 20:20:00,
2013-07-07 16:30:00,71.6,68.2,30.00,NNW,341,0.0,0.0,89,0.11,,,0.22,102,Wunderground v.1.15,2013-07-07 20:30:00,
2013-07-07 16:40:00,71.3,68.5,30.01,North,5,0.0,0.0,91,0.04,,,0.23,91,Wunderground v.1.15,2013-07-07 20:40:00,
2013-07-07 16:50:00,71.2,68.8,30.01,North,5,0.0,0.0,92,0.06,,,0.24,171,Wunderground v.1.15,2013-07-07 20:50:00,
2013-07-07 17:00:00,71.5,69.4,30.02,North,5,0.0,0.0,93,0.00,,,0.24,58,Wunderground v.1.15,2013-07-07 21:00:00,
2013-07-07 17:10:00,71.5,69.4,30.02,North,5,0.0,0.0,93,0.00,,,0.24,58,Wunderground v.1.15,2013-07-07 21:10:00,
2013-07-07 17:20:00,71.9,69.8,30.02,ESE,117,0.0,0.0,93,0.00,,,0.24,35,Wunderground v.1.15,2013-07-07 21:20:00,
2013-07-07 17:30:00,71.8,69.7,30.01,SE,134,0.0,0.0,93,0.00,,,0.24,14,Wunderground v.1.15,2013-07-07 21:30:00,
2013-07-07 17:40:00,71.6,69.5,30.01,SE,142,0.0,0.0,93,0.00,,,0.24,9,Wunderground v.1.15,2013-07-07 21:40:00,
2013-07-07 18:20:00,70.9,69.4,30.01,SE,126,0.0,0.0,95,0.04,,,0.26,11,Wunderground v.1.15,2013-07-07 22:20:00,
2013-07-07 18:30:00,70.8,69.3,30.01,SE,126,0.0,0.0,95,0.12,,,0.28,9,Wunderground v.1.15,2013-07-07 22:30:00,
2013-07-07 18:40:00,70.5,69.0,30.01,SE,126,0.0,0.0,95,0.04,,,0.28,7,Wunderground v.1.15,2013-07-07 22:40:00,
2013-07-07 18:50:00,70.6,69.4,30.00,SSE,148,0.0,0.0,96,0.00,,,0.29,7,Wunderground v.1.15,2013-07-07 22:50:00,
2013-07-07 19:00:00,70.4,69.2,30.01,SSE,148,0.0,0.0,96,0.00,,,0.29,14,Wunderground v.1.15,2013-07-07 23:00:00,
2013-07-07 19:10:00,70.4,69.2,30.00,SSE,148,0.0,0.0,96,0.00,,,0.29,33,Wunderground v.1.15,2013-07-07 23:10:00,
2013-07-07 19:20:00,70.6,69.4,30.00,SSE,148,0.0,0.0,96,0.00,,,0.29,63,Wunderground v.1.15,2013-07-07 23:20:00,
2013-07-07 19:30:00,70.9,69.7,30.00,SSE,148,0.0,0.0,96,0.00,,,0.29,60,Wunderground v.1.15,2013-07-07 23:30:00,
2013-07-07 19:40:00,71.0,69.8,30.00,SSE,148,0.0,0.0,96,0.00,,,0.29,44,Wunderground v.1.15,2013-07-07 23:40:00,
2013-07-07 19:50:00,71.3,70.1,30.00,SSE,148,0.0,0.0,96,0.00,,,0.29,33,Wunderground v.1.15,2013-07-07 23:50:00,
2013-07-07 20:00:00,71.0,69.8,30.01,West,263,0.0,0.0,96,0.00,,,0.29,37,Wunderground v.1.15,2013-07-08 00:00:00,
2013-07-07 20:10:00,71.2,70.0,30.02,West,263,0.0,0.0,96,0.00,,,0.29,30,Wunderground v.1.15,2013-07-08 00:10:00,
2013-07-07 20:20:00,71.1,69.9,30.01,West,263,0.0,0.0,96,0.00,,,0.29,18,Wunderground v.1.15,2013-07-08 00:20:00,
2013-07-07 20:30:00,71.1,69.9,30.01,West,263,0.0,0.0,96,0.00,,,0.29,14,Wunderground v.1.15,2013-07-08 00:30:00,
2013-07-07 20:40:00,70.8,69.6,30.00,West,263,0.0,0.0,96,0.00,,,0.29,7,Wunderground v.1.15,2013-07-08 00:40:00,
2013-07-07 20:50:00,70.8,69.6,30.01,West,263,0.0,0.0,96,0.00,,,0.29,0,Wunderground v.1.15,2013-07-08 00:50:00,
2013-07-07 21:00:00,70.6,69.4,30.01,NW,305,0.0,0.0,96,0.00,,,0.29,0,Wunderground v.1.15,2013-07-08 01:00:00,
2013-07-07 21:10:00,70.4,69.2,30.03,NW,305,0.0,0.0,96,0.00,,,0.29,0,Wunderground v.1.15,2013-07-08 01:10:00,
2013-07-07 21:20:00,70.4,69.5,30.02,NW,305,0.0,0.0,97,0.00,,,0.29,0,Wunderground v.1.15,2013-07-08 01:20:00,
2013-07-07 21:30:00,70.5,69.6,30.03,SSW,200,0.0,0.0,97,0.00,,,0.29,0,Wunderground v.1.15,2013-07-08 01:30:00,
2013-07-07 21:40:00,70.4,69.5,30.02,SSW,200,0.0,0.0,97,0.00,,,0.29,0,Wunderground v.1.15,2013-07-08 01:40:00,
2013-07-07 21:50:00,70.2,69.0,30.03,SSW,200,0.0,0.0,96,0.00,,,0.29,0,Wunderground v.1.15,2013-07-08 01:50:00,
2013-07-07 22:00:00,69.9,69.0,30.03,SSW,200,0.0,0.0,97,0.00,,,0.29,0,Wunderground v.1.15,2013-07-08 02:00:00,
2013-07-07 22:10:00,70.0,69.1,30.03,SSW,200,0.0,0.0,97,0.00,,,0.29,0,Wunderground v.1.15,2013-07-08 02:10:00,
2013-07-07 22:20:00,69.9,69.0,30.03,SSW,200,0.0,0.0,97,0.00,,,0.29,0,Wunderground v.1.15,2013-07-08 02:20:00,
2013-07-07 22:30:00,70.0,69.1,30.04,SSW,200,0.0,0.0,97,0.00,,,0.29,0,Wunderground v.1.15,2013-07-08 02:30:00,
2013-07-07 22:40:00,69.8,68.9,30.03,SSW,200,0.0,0.0,97,0.00,,,0.29,0,Wunderground v.1.15,2013-07-08 02:40:00,
2013-07-07 22:50:00,69.5,68.6,30.03,SSW,200,0.0,0.0,97,0.00,,,0.29,0,Wunderground v.1.15,2013-07-08 02:50:00,
2013-07-07 23:00:00,69.2,68.3,30.02,SSW,200,0.0,0.0,97,0.00,,,0.29,0,Wunderground v.1.15,2013-07-08 03:00:00,
2013-07-07 23:10:00,69.1,68.2,30.02,SSW,200,0.0,0.0,97,0.00,,,0.29,0,Wunderground v.1.15,2013-07-08 03:10:00,
2013-07-07 23:20:00,69.3,68.4,30.02,SSW,200,0.0,0.0,97,0.00,,,0.29,0,Wunderground v.1.15,2013-07-08 03:20:00,
2013-07-07 23:30:00,69.1,68.2,30.02,SSW,200,0.0,0.0,97,0.00,,,0.29,0,Wunderground v.1.15,2013-07-08 03:30:00,
2013-07-07 23:40:00,69.4,68.5,30.02,SSW,200,0.0,0.0,97,0.00,,,0.29,0,Wunderground v.1.15,2013-07-08 03:40:00,
2013-07-07 23:50:00,69.4,68.5,30.03,SSW,200,0.0,0.0,97,0.00,,,0.29,0,Wunderground v.1.15,2013-07-08 03:50:00,